| time (UTC) | temp F | wind direction | speed MPH | gust MPH | rain 1hr in | rain 24hr in | rain mn in | humidity % | barometer mb |
| 20260507230521 | 63 | 342 | 0.0 | 5.0 | 0.00 | 0.00 | 0.00 | 60 | 1019.1 |
| 20260507230028 | 63 | 27 | 0.0 | 4.0 | 0.00 | 0.00 | 0.00 | 60 | 1019.1 |
| 20260507225520 | 63 | 331 | 0.0 | 3.0 | 0.00 | 0.00 | 0.00 | 59 | 1019.2 |
| 20260507225021 | 63 | 248 | 1.0 | 3.0 | 0.00 | 0.00 | 0.00 | 59 | 1019.2 |
| 20260507224528 | 63 | 334 | 0.0 | 3.0 | 0.00 | 0.00 | 0.00 | 57 | 1019.3 |
| 20260507224018 | 64 | 313 | 0.0 | 2.0 | 0.00 | 0.00 | 0.00 | 57 | 1019.3 |
| 20260507223619 | 63 | 297 | 3.0 | 8.0 | 0.00 | 0.00 | 0.00 | 61 | 1019.4 |
| 20260507223018 | 63 | 278 | 2.0 | 8.0 | 0.00 | 0.00 | 0.00 | 62 | 1019.3 |
| 20260507222517 | 63 | 316 | 4.0 | 9.0 | 0.00 | 0.00 | 0.00 | 59 | 1019.5 |
| 20260507222017 | 63 | 254 | 5.0 | 9.0 | 0.00 | 0.00 | 0.00 | 62 | 1019.5 |
| 20260507221523 | 63 | 332 | 2.0 | 6.0 | 0.00 | 0.00 | 0.00 | 63 | 1019.6 |
| 20260507221015 | 62 | 331 | 1.0 | 8.0 | 0.00 | 0.00 | 0.00 | 61 | 1019.7 |
| 20260507220513 | 62 | 321 | 3.0 | 8.0 | 0.00 | 0.00 | 0.00 | 61 | 1019.9 |
| 20260507220017 | 63 | 246 | 4.0 | 9.0 | 0.00 | 0.00 | 0.00 | 61 | 1019.8 |
| 20260507215515 | 64 | 343 | 2.0 | 9.0 | 0.00 | 0.00 | 0.00 | 60 | 1019.9 |
| 20260507215015 | 63 | 323 | 3.0 | 9.0 | 0.00 | 0.00 | 0.00 | 61 | 1019.9 |
| 20260507214511 | 63 | 294 | 4.0 | 9.0 | 0.00 | 0.00 | 0.00 | 61 | 1020.0 |
| 20260507214011 | 63 | 294 | 5.0 | 10.0 | 0.00 | 0.00 | 0.00 | 60 | 1020.0 |
| 20260507213510 | 61 | 329 | 0.0 | 4.0 | 0.00 | 0.00 | 0.00 | 63 | 1020.0 |
| 20260507213015 | 61 | 329 | 0.0 | 4.0 | 0.00 | 0.00 | 0.00 | 63 | 1020.1 |
| 20260507212513 | 61 | 27 | 1.0 | 4.0 | 0.00 | 0.00 | 0.00 | 60 | 1020.1 |
| 20260507212012 | 61 | 237 | 0.0 | 3.0 | 0.00 | 0.00 | 0.00 | 63 | 1020.2 |
| 20260507211527 | 60 | 134 | 1.0 | 3.0 | 0.00 | 0.00 | 0.00 | 64 | 1020.4 |
| 20260507211015 | 59 | 213 | 0.0 | 3.0 | 0.00 | 0.00 | 0.00 | 63 | 1020.5 |
| 20260507210511 | 59 | 355 | 0.0 | 5.0 | 0.00 | 0.00 | 0.00 | 64 | 1020.5 |
| 20260507210010 | 60 | 52 | 1.0 | 3.0 | 0.00 | 0.00 | 0.00 | 62 | 1020.6 |
| 20260507205510 | 61 | 85 | 1.0 | 3.0 | 0.00 | 0.00 | 0.00 | 61 | 1020.6 |
| 20260507205010 | 61 | 199 | 0.0 | 2.0 | 0.00 | 0.00 | 0.00 | 62 | 1020.7 |
| 20260507204508 | 60 | 233 | 0.0 | 2.0 | 0.00 | 0.00 | 0.00 | 62 | 1020.7 |
| 20260507204008 | 60 | 222 | 0.0 | 2.0 | 0.00 | 0.00 | 0.00 | 63 | 1020.8 |
| 20260507203607 | 60 | 279 | 3.0 | 9.0 | 0.00 | 0.00 | 0.00 | 66 | 1020.8 |
| 20260507203003 | 60 | 297 | 3.0 | 9.0 | 0.00 | 0.00 | 0.00 | 65 | 1020.9 |
| 20260507202502 | 60 | 298 | 5.0 | 9.0 | 0.00 | 0.00 | 0.00 | 66 | 1021.0 |
| 20260507202002 | 59 | 292 | 2.0 | 7.0 | 0.00 | 0.00 | 0.00 | 68 | 1021.0 |
| 20260507201504 | 60 | 301 | 1.0 | 8.0 | 0.00 | 0.00 | 0.00 | 64 | 1021.0 |
| 20260507201101 | 60 | 311 | 4.0 | 8.0 | 0.00 | 0.00 | 0.00 | 65 | 1021.0 |
| 20260507201002 | 60 | 317 | 4.0 | 8.0 | 0.00 | 0.00 | 0.00 | 65 | 1021.0 |
| 20260507200600 | 59 | 325 | 3.0 | 5.0 | 0.00 | 0.00 | 0.00 | 66 | 1021.0 |
| 20260507200058 | 58 | 338 | 1.0 | 5.0 | 0.00 | 0.00 | 0.00 | 68 | 1021.0 |
| 20260507195558 | 58 | 346 | 1.0 | 5.0 | 0.00 | 0.00 | 0.00 | 67 | 1021.0 |
| 20260507195059 | 58 | 333 | 2.0 | 5.0 | 0.00 | 0.00 | 0.00 | 67 | 1021.0 |
| 20260507194612 | 58 | 342 | 3.0 | 6.0 | 0.00 | 0.00 | 0.00 | 67 | 1021.0 |
| 20260507194057 | 59 | 307 | 2.0 | 6.0 | 0.00 | 0.00 | 0.00 | 67 | 1021.1 |
| 20260507193557 | 58 | 268 | 1.0 | 6.0 | 0.00 | 0.00 | 0.00 | 71 | 1021.1 |
| 20260507192556 | 58 | 269 | 4.0 | 6.0 | 0.00 | 0.00 | 0.00 | 68 | 1021.1 |
| 20260507192056 | 56 | 275 | 1.0 | 4.0 | 0.00 | 0.00 | 0.00 | 72 | 1021.2 |
| 20260507191602 | 56 | 283 | 0.0 | 4.0 | 0.00 | 0.00 | 0.00 | 71 | 1021.2 |
| 20260507191056 | 57 | 283 | 1.0 | 4.0 | 0.00 | 0.00 | 0.00 | 70 | 1021.3 |
| 20260507190554 | 56 | 283 | 1.0 | 5.0 | 0.00 | 0.00 | 0.00 | 70 | 1021.2 |
| 20260507190055 | 57 | 288 | 2.0 | 7.0 | 0.00 | 0.00 | 0.00 | 70 | 1021.3 |
| 20260507185554 | 57 | 292 | 3.0 | 7.0 | 0.00 | 0.00 | 0.00 | 69 | 1021.3 |
| 20260507185054 | 56 | 296 | 3.0 | 6.0 | 0.00 | 0.00 | 0.00 | 70 | 1021.4 |
| 20260507184554 | 57 | 317 | 3.0 | 8.0 | 0.00 | 0.00 | 0.00 | 70 | 1021.5 |
| 20260507184053 | 57 | 309 | 2.0 | 8.0 | 0.00 | 0.00 | 0.00 | 69 | 1021.5 |
| 20260507183558 | 58 | 278 | 2.0 | 6.0 | 0.00 | 0.00 | 0.00 | 67 | 1021.4 |
| 20260507182552 | 57 | 263 | 0.0 | 3.0 | 0.00 | 0.00 | 0.00 | 71 | 1021.5 |
| 20260507182052 | 57 | 263 | 1.0 | 3.0 | 0.00 | 0.00 | 0.00 | 70 | 1021.5 |
| 20260507181550 | 55 | 257 | 1.0 | 4.0 | 0.00 | 0.00 | 0.00 | 74 | 1021.5 |
| 20260507181049 | 54 | 257 | 1.0 | 4.0 | 0.00 | 0.00 | 0.00 | 75 | 1021.5 |
| 20260507180549 | 54 | 257 | 2.0 | 6.0 | 0.00 | 0.00 | 0.00 | 74 | 1021.6 |
| 20260507180053 | 54 | 258 | 2.0 | 6.0 | 0.00 | 0.00 | 0.00 | 76 | 1021.7 |
| 20260507175547 | 54 | 226 | 2.0 | 5.0 | 0.00 | 0.00 | 0.00 | 76 | 1021.7 |
| 20260507175046 | 54 | 225 | 3.0 | 5.0 | 0.00 | 0.00 | 0.00 | 76 | 1021.7 |
| 20260507174546 | 54 | 290 | 1.0 | 5.0 | 0.00 | 0.00 | 0.00 | 75 | 1021.8 |
| 20260507174045 | 54 | 288 | 2.0 | 7.0 | 0.00 | 0.00 | 0.00 | 75 | 1021.7 |
| 20260507173545 | 54 | 271 | 3.0 | 9.0 | 0.00 | 0.00 | 0.00 | 75 | 1021.7 |
| 20260507172548 | 55 | 292 | 5.0 | 9.0 | 0.00 | 0.00 | 0.00 | 75 | 1021.7 |
| 20260507172045 | 54 | 261 | 2.0 | 5.0 | 0.00 | 0.00 | 0.00 | 76 | 1021.8 |
| 20260507171544 | 54 | 282 | 1.0 | 5.0 | 0.00 | 0.00 | 0.00 | 75 | 1021.7 |
| 20260507171042 | 54 | 298 | 2.0 | 5.0 | 0.00 | 0.00 | 0.00 | 74 | 1021.7 |
| 20260507170541 | 53 | 296 | 3.0 | 8.0 | 0.00 | 0.00 | 0.00 | 75 | 1021.8 |
| 20260507170050 | 53 | 286 | 3.0 | 8.0 | 0.00 | 0.00 | 0.00 | 76 | 1021.7 |
| 20260507165542 | 53 | 263 | 1.0 | 6.0 | 0.00 | 0.00 | 0.00 | 76 | 1021.6 |
| 20260507165142 | 53 | 265 | 2.0 | 6.0 | 0.00 | 0.00 | 0.00 | 77 | 1021.8 |
| 20260507164539 | 52 | 254 | 1.0 | 7.0 | 0.00 | 0.00 | 0.00 | 78 | 1021.8 |
| 20260507164039 | 53 | 262 | 3.0 | 7.0 | 0.00 | 0.00 | 0.00 | 76 | 1021.8 |
| 20260507163539 | 53 | 281 | 2.0 | 7.0 | 0.00 | 0.00 | 0.00 | 75 | 1021.8 |
| 20260507162539 | 53 | 296 | 2.0 | 7.0 | 0.00 | 0.00 | 0.00 | 76 | 1021.7 |
| 20260507162038 | 53 | 284 | 3.0 | 7.0 | 0.00 | 0.00 | 0.00 | 76 | 1021.8 |
| 20260507161536 | 52 | 233 | 1.0 | 4.0 | 0.00 | 0.00 | 0.00 | 80 | 1021.7 |
| 20260507161034 | 51 | 233 | 1.0 | 4.0 | 0.00 | 0.00 | 0.00 | 79 | 1021.7 |
| 20260507160535 | 51 | 233 | 0.0 | 5.0 | 0.00 | 0.00 | 0.00 | 79 | 1021.7 |
| 20260507160035 | 51 | 233 | 2.0 | 5.0 | 0.00 | 0.00 | 0.00 | 80 | 1021.7 |
| 20260507155534 | 51 | 232 | 1.0 | 7.0 | 0.00 | 0.00 | 0.00 | 79 | 1021.7 |
| 20260507155035 | 51 | 232 | 2.0 | 7.0 | 0.00 | 0.00 | 0.00 | 79 | 1021.8 |
| 20260507154533 | 51 | 215 | 3.0 | 7.0 | 0.00 | 0.00 | 0.00 | 78 | 1021.8 |
| 20260507154032 | 51 | 175 | 3.0 | 7.0 | 0.00 | 0.00 | 0.00 | 80 | 1021.8 |
| 20260507153530 | 51 | 184 | 3.0 | 10.0 | 0.00 | 0.00 | 0.00 | 81 | 1021.9 |
| 20260507152530 | 51 | 154 | 4.0 | 9.0 | 0.00 | 0.00 | 0.00 | 82 | 1022.0 |
| 20260507152028 | 50 | 181 | 2.0 | 7.0 | 0.00 | 0.00 | 0.00 | 83 | 1022.0 |
| 20260507151528 | 50 | 182 | 2.0 | 7.0 | 0.00 | 0.00 | 0.00 | 83 | 1022.0 |
| 20260507151026 | 50 | 189 | 3.0 | 7.0 | 0.00 | 0.00 | 0.00 | 83 | 1022.0 |
| 20260507150525 | 50 | 191 | 3.0 | 5.0 | 0.00 | 0.00 | 0.00 | 83 | 1022.0 |
| 20260507150026 | 50 | 198 | 2.0 | 5.0 | 0.00 | 0.00 | 0.00 | 82 | 1022.1 |
| 20260507145525 | 51 | 198 | 1.0 | 7.0 | 0.00 | 0.00 | 0.00 | 83 | 1022.1 |
| 20260507145024 | 50 | 194 | 2.0 | 6.0 | 0.00 | 0.00 | 0.00 | 84 | 1022.1 |
| 20260507144524 | 50 | 194 | 2.0 | 6.0 | 0.00 | 0.00 | 0.00 | 84 | 1022.1 |
| 20260507144022 | 49 | 190 | 4.0 | 6.0 | 0.00 | 0.00 | 0.00 | 84 | 1022.1 |
| 20260507143521 | 49 | 190 | 1.0 | 4.0 | 0.00 | 0.00 | 0.00 | 85 | 1022.2 |
| 20260507142523 | 49 | 190 | 2.0 | 5.0 | 0.00 | 0.00 | 0.00 | 85 | 1022.2 |
| 20260507142020 | 49 | 190 | 1.0 | 6.0 | 0.00 | 0.00 | 0.00 | 86 | 1022.2 |
| 20260507141520 | 49 | 190 | 2.0 | 5.0 | 0.00 | 0.00 | 0.00 | 86 | 1022.2 |
| 20260507141020 | 49 | 190 | 0.0 | 4.0 | 0.00 | 0.00 | 0.00 | 86 | 1022.2 |
| 20260507140520 | 49 | 188 | 0.0 | 4.0 | 0.00 | 0.00 | 0.00 | 86 | 1022.1 |
| 20260507140019 | 49 | 188 | 1.0 | 4.0 | 0.00 | 0.00 | 0.00 | 86 | 1022.0 |
| 20260507135518 | 49 | 188 | 0.0 | 4.0 | 0.00 | 0.00 | 0.00 | 87 | 1021.8 |
| 20260507135017 | 49 | 188 | 0.0 | 4.0 | 0.00 | 0.00 | 0.00 | 87 | 1021.8 |
| 20260507134517 | 49 | 186 | 1.0 | 3.0 | 0.00 | 0.00 | 0.00 | 87 | 1021.8 |
| 20260507134015 | 49 | 186 | 1.0 | 3.0 | 0.00 | 0.00 | 0.00 | 87 | 1021.8 |
| 20260507133514 | 49 | 186 | 0.0 | 2.0 | 0.00 | 0.00 | 0.00 | 88 | 1021.8 |
| 20260507132513 | 49 | 186 | 0.0 | 3.0 | 0.00 | 0.00 | 0.00 | 89 | 1021.7 |
| 20260507132013 | 48 | 186 | 0.0 | 3.0 | 0.00 | 0.00 | 0.00 | 89 | 1021.7 |
| 20260507131512 | 48 | 186 | 0.0 | 1.0 | 0.00 | 0.00 | 0.00 | 89 | 1021.8 |
| 20260507131011 | 48 | 186 | 0.0 | 2.0 | 0.00 | 0.00 | 0.00 | 89 | 1021.7 |
| 20260507130512 | 48 | 186 | 0.0 | 1.0 | 0.00 | 0.00 | 0.00 | 89 | 1021.7 |
| 20260507130010 | 48 | 186 | 0.0 | 1.0 | 0.00 | 0.00 | 0.00 | 89 | 1021.8 |
| 20260507125511 | 48 | 186 | 0.0 | 2.0 | 0.00 | 0.00 | 0.00 | 89 | 1021.8 |
| 20260507125011 | 48 | 186 | 0.0 | 2.0 | 0.00 | 0.00 | 0.00 | 89 | 1021.8 |
| 20260507124509 | 48 | 186 | 0.0 | 3.0 | 0.00 | 0.00 | 0.00 | 89 | 1021.8 |
| 20260507124008 | 48 | 186 | 0.0 | 3.0 | 0.00 | 0.00 | 0.00 | 89 | 1021.9 |
| 20260507123508 | 48 | 186 | 0.0 | 1.0 | 0.00 | 0.00 | 0.00 | 89 | 1021.9 |
| 20260507122506 | 48 | 186 | 0.0 | 2.0 | 0.00 | 0.00 | 0.00 | 89 | 1022.0 |
| 20260507122006 | 48 | 186 | 0.0 | 2.0 | 0.00 | 0.00 | 0.00 | 89 | 1022.0 |
| 20260507121506 | 49 | 186 | 0.0 | 1.0 | 0.00 | 0.00 | 0.00 | 89 | 1022.1 |
| 20260507121006 | 49 | 186 | 0.0 | 1.0 | 0.00 | 0.00 | 0.00 | 89 | 1022.1 |
| 20260507120504 | 49 | 186 | 0.0 | 1.0 | 0.00 | 0.00 | 0.00 | 89 | 1022.2 |
| 20260507120005 | 49 | 186 | 0.0 | 1.0 | 0.00 | 0.00 | 0.00 | 88 | 1022.2 |
| 20260507115504 | 49 | 186 | 0.0 | 1.0 | 0.00 | 0.00 | 0.00 | 88 | 1022.3 |
| 20260507115002 | 49 | 186 | 0.0 | 2.0 | 0.00 | 0.00 | 0.00 | 88 | 1022.3 |
| 20260507114502 | 49 | 186 | 0.0 | 2.0 | 0.00 | 0.00 | 0.00 | 88 | 1022.4 |
| 20260507114004 | 49 | 186 | 0.0 | 0.0 | 0.00 | 0.00 | 0.00 | 88 | 1022.4 |
| 20260507113503 | 49 | 186 | 0.0 | 1.0 | 0.00 | 0.00 | 0.00 | 88 | 1022.4 |
| 20260507112502 | 49 | 186 | 0.0 | 1.0 | 0.00 | 0.00 | 0.00 | 88 | 1022.4 |
| 20260507112101 | 49 | 186 | 0.0 | 1.0 | 0.00 | 0.00 | 0.00 | 87 | 1022.3 |
| 20260507112001 | 49 | 186 | 0.0 | 2.0 | 0.00 | 0.00 | 0.00 | 87 | 1022.4 |
| 20260507111601 | 49 | 186 | 0.0 | 2.0 | 0.00 | 0.00 | 0.00 | 87 | 1022.4 |
| 20260507111059 | 49 | 186 | 0.0 | 1.0 | 0.00 | 0.00 | 0.00 | 86 | 1022.4 |
| 20260507110559 | 49 | 186 | 0.0 | 1.0 | 0.00 | 0.00 | 0.00 | 86 | 1022.5 |
| 20260507110103 | 49 | 186 | 0.0 | 2.0 | 0.00 | 0.00 | 0.00 | 85 | 1022.4 |
| 20260507105558 | 49 | 186 | 0.0 | 2.0 | 0.00 | 0.00 | 0.00 | 84 | 1022.6 |
| 20260507105058 | 49 | 186 | 0.0 | 2.0 | 0.00 | 0.00 | 0.00 | 84 | 1022.6 |
| 20260507104603 | 49 | 186 | 0.0 | 2.0 | 0.00 | 0.00 | 0.00 | 85 | 1022.5 |
| 20260507104057 | 50 | 186 | 0.0 | 3.0 | 0.00 | 0.00 | 0.00 | 85 | 1022.5 |
| 20260507103557 | 50 | 186 | 0.0 | 3.0 | 0.00 | 0.00 | 0.00 | 85 | 1022.5 |
| 20260507102557 | 50 | 186 | 0.0 | 3.0 | 0.00 | 0.00 | 0.00 | 85 | 1022.6 |
| 20260507102056 | 50 | 186 | 0.0 | 3.0 | 0.00 | 0.00 | 0.00 | 85 | 1022.6 |
| 20260507101556 | 50 | 186 | 0.0 | 2.0 | 0.00 | 0.00 | 0.00 | 84 | 1022.6 |
| 20260507101057 | 50 | 186 | 0.0 | 4.0 | 0.00 | 0.00 | 0.00 | 84 | 1022.6 |
| 20260507100554 | 50 | 186 | 0.0 | 4.0 | 0.00 | 0.00 | 0.00 | 84 | 1022.6 |
| 20260507100107 | 50 | 186 | 0.0 | 3.0 | 0.00 | 0.00 | 0.00 | 84 | 1022.5 |
| 20260507095555 | 50 | 186 | 0.0 | 3.0 | 0.00 | 0.00 | 0.00 | 85 | 1022.5 |
| 20260507095056 | 50 | 186 | 1.0 | 3.0 | 0.00 | 0.00 | 0.00 | 85 | 1022.5 |
| 20260507094553 | 50 | 186 | 1.0 | 3.0 | 0.00 | 0.00 | 0.00 | 85 | 1022.5 |
| 20260507094053 | 50 | 186 | 1.0 | 4.0 | 0.00 | 0.00 | 0.00 | 85 | 1022.5 |
| 20260507093552 | 50 | 186 | 0.0 | 4.0 | 0.00 | 0.00 | 0.00 | 85 | 1022.5 |
| 20260507092552 | 50 | 187 | 1.0 | 4.0 | 0.00 | 0.00 | 0.00 | 85 | 1022.5 |
| 20260507092051 | 50 | 188 | 1.0 | 4.0 | 0.00 | 0.00 | 0.00 | 85 | 1022.5 |
| 20260507091551 | 50 | 188 | 0.0 | 5.0 | 0.00 | 0.00 | 0.00 | 85 | 1022.6 |
| 20260507091050 | 50 | 188 | 1.0 | 5.0 | 0.00 | 0.00 | 0.00 | 85 | 1022.4 |
| 20260507090550 | 50 | 185 | 3.0 | 5.0 | 0.00 | 0.00 | 0.00 | 86 | 1022.4 |
| 20260507090056 | 50 | 187 | 1.0 | 5.0 | 0.00 | 0.00 | 0.00 | 87 | 1022.5 |
| 20260507085549 | 50 | 186 | 2.0 | 5.0 | 0.00 | 0.00 | 0.00 | 87 | 1022.5 |
| 20260507085051 | 50 | 186 | 2.0 | 5.0 | 0.00 | 0.00 | 0.00 | 87 | 1022.5 |
| 20260507084558 | 50 | 186 | 1.0 | 5.0 | 0.00 | 0.00 | 0.00 | 87 | 1022.5 |
| 20260507084049 | 50 | 185 | 1.0 | 5.0 | 0.00 | 0.00 | 0.00 | 88 | 1022.5 |
| 20260507083549 | 51 | 185 | 1.0 | 4.0 | 0.00 | 0.00 | 0.00 | 88 | 1022.5 |
| 20260507082547 | 51 | 184 | 1.0 | 6.0 | 0.00 | 0.00 | 0.00 | 88 | 1022.6 |
| 20260507082047 | 51 | 182 | 2.0 | 5.0 | 0.00 | 0.00 | 0.00 | 89 | 1022.6 |
| 20260507081548 | 51 | 180 | 1.0 | 5.0 | 0.00 | 0.00 | 0.00 | 90 | 1022.5 |
| 20260507081047 | 51 | 174 | 1.0 | 5.0 | 0.00 | 0.00 | 0.00 | 90 | 1022.6 |
| 20260507080549 | 51 | 170 | 3.0 | 5.0 | 0.00 | 0.00 | 0.00 | 90 | 1022.6 |
| 20260507080053 | 50 | 170 | 0.0 | 4.0 | 0.00 | 0.00 | 0.00 | 90 | 1022.6 |
| 20260507075547 | 51 | 170 | 1.0 | 5.0 | 0.00 | 0.00 | 0.00 | 90 | 1022.6 |
| 20260507075045 | 51 | 168 | 0.0 | 4.0 | 0.00 | 0.00 | 0.00 | 91 | 1022.7 |
| 20260507074546 | 51 | 169 | 1.0 | 5.0 | 0.00 | 0.00 | 0.00 | 90 | 1022.6 |
| 20260507074045 | 51 | 170 | 1.0 | 5.0 | 0.00 | 0.00 | 0.00 | 89 | 1022.6 |
| 20260507073544 | 51 | 174 | 1.0 | 4.0 | 0.00 | 0.00 | 0.00 | 89 | 1022.5 |
| 20260507072544 | 51 | 175 | 3.0 | 8.0 | 0.00 | 0.00 | 0.00 | 88 | 1022.5 |
| 20260507072043 | 52 | 175 | 3.0 | 9.0 | 0.00 | 0.00 | 0.00 | 87 | 1022.5 |
| 20260507071545 | 52 | 188 | 2.0 | 7.0 | 0.00 | 0.00 | 0.00 | 87 | 1022.5 |
| 20260507071042 | 52 | 173 | 4.0 | 7.0 | 0.00 | 0.00 | 0.00 | 86 | 1022.5 |
| 20260507070542 | 52 | 189 | 2.0 | 6.0 | 0.00 | 0.00 | 0.00 | 86 | 1022.5 |
| 20260507070059 | 52 | 189 | 2.0 | 6.0 | 0.00 | 0.00 | 0.00 | 86 | 1022.5 |
| 20260507065540 | 52 | 183 | 2.0 | 5.0 | 0.00 | 0.00 | 0.00 | 86 | 1022.4 |
| 20260507065041 | 52 | 187 | 1.0 | 6.0 | 0.00 | 0.00 | 0.00 | 86 | 1022.5 |
| 20260507064549 | 52 | 187 | 3.0 | 6.0 | 0.00 | 0.00 | 0.00 | 86 | 1022.4 |
| 20260507064041 | 52 | 200 | 2.0 | 5.0 | 0.00 | 0.00 | 0.00 | 86 | 1022.4 |
| 20260507063539 | 52 | 221 | 1.0 | 5.0 | 0.00 | 0.00 | 0.00 | 87 | 1022.5 |
| 20260507062541 | 52 | 227 | 0.0 | 7.0 | 0.00 | 0.00 | 0.00 | 87 | 1022.4 |
| 20260507062039 | 52 | 229 | 2.0 | 7.0 | 0.00 | 0.00 | 0.00 | 87 | 1022.5 |
| 20260507061539 | 52 | 270 | 1.0 | 5.0 | 0.00 | 0.00 | 0.00 | 87 | 1022.4 |
| 20260507061139 | 52 | 291 | 0.0 | 3.0 | 0.00 | 0.00 | 0.00 | 87 | 1022.4 |
| 20260507060541 | 52 | 295 | 1.0 | 3.0 | 0.00 | 0.00 | 0.00 | 87 | 1022.6 |
| 20260507060038 | 52 | 296 | 1.0 | 3.0 | 0.00 | 0.00 | 0.00 | 87 | 1022.5 |
| 20260507055538 | 53 | 299 | 0.0 | 4.0 | 0.00 | 0.00 | 0.00 | 88 | 1022.5 |
| 20260507055037 | 53 | 299 | 1.0 | 4.0 | 0.00 | 0.00 | 0.00 | 87 | 1022.6 |
| 20260507054556 | 53 | 302 | 1.0 | 4.0 | 0.00 | 0.00 | 0.00 | 88 | 1022.6 |
| 20260507054039 | 53 | 331 | 2.0 | 4.0 | 0.00 | 0.00 | 0.00 | 89 | 1022.5 |
| 20260507053541 | 53 | 348 | 1.0 | 3.0 | 0.00 | 0.00 | 0.00 | 90 | 1022.6 |
| 20260507052537 | 53 | 351 | 0.0 | 4.0 | 0.00 | 0.00 | 0.00 | 90 | 1022.5 |
| 20260507052037 | 53 | 351 | 0.0 | 4.0 | 0.00 | 0.00 | 0.00 | 89 | 1022.5 |
| 20260507051543 | 53 | 360 | 0.0 | 4.0 | 0.00 | 0.00 | 0.00 | 88 | 1022.4 |
| 20260507051036 | 53 | 360 | 1.0 | 4.0 | 0.00 | 0.00 | 0.00 | 88 | 1022.5 |
| 20260507050539 | 53 | 360 | 0.0 | 3.0 | 0.00 | 0.00 | 0.00 | 88 | 1022.5 |
| 20260507050046 | 54 | 360 | 1.0 | 3.0 | 0.00 | 0.00 | 0.00 | 88 | 1022.5 |
| 20260507045536 | 54 | 360 | 0.0 | 0.0 | 0.00 | 0.00 | 0.00 | 88 | 1022.4 |
| 20260507045036 | 54 | 360 | 0.0 | 0.0 | 0.00 | 0.00 | 0.00 | 88 | 1022.4 |
| 20260507044539 | 54 | 360 | 0.0 | 0.0 | 0.00 | 0.00 | 0.00 | 88 | 1022.5 |
| 20260507044036 | 54 | 360 | 0.0 | 0.0 | 0.00 | 0.00 | 0.00 | 87 | 1022.5 |
| 20260507043535 | 54 | 360 | 0.0 | 0.0 | 0.00 | 0.00 | 0.00 | 87 | 1022.5 |
| 20260507042535 | 54 | 360 | 0.0 | 0.0 | 0.00 | 0.00 | 0.00 | 87 | 1022.4 |
| 20260507042034 | 54 | 360 | 0.0 | 0.0 | 0.00 | 0.00 | 0.00 | 87 | 1022.4 |
| 20260507041534 | 54 | 360 | 0.0 | 0.0 | 0.00 | 0.00 | 0.00 | 87 | 1022.5 |
| 20260507041036 | 54 | 360 | 0.0 | 0.0 | 0.00 | 0.00 | 0.00 | 87 | 1022.5 |
| 20260507040534 | 54 | 360 | 0.0 | 0.0 | 0.00 | 0.00 | 0.00 | 86 | 1022.3 |
| 20260507040039 | 54 | 360 | 0.0 | 0.0 | 0.00 | 0.00 | 0.00 | 87 | 1022.4 |
| 20260507035533 | 54 | 360 | 0.0 | 0.0 | 0.00 | 0.00 | 0.00 | 87 | 1022.2 |
| 20260507035033 | 54 | 360 | 0.0 | 0.0 | 0.00 | 0.00 | 0.00 | 87 | 1022.1 |
| 20260507034533 | 54 | 360 | 0.0 | 0.0 | 0.00 | 0.00 | 0.00 | 87 | 1022.3 |
| 20260507034033 | 54 | 360 | 0.0 | 0.0 | 0.00 | 0.00 | 0.00 | 88 | 1022.1 |
| 20260507033532 | 54 | 360 | 0.0 | 0.0 | 0.00 | 0.00 | 0.00 | 88 | 1022.1 |
| 20260507032530 | 54 | 360 | 0.0 | 1.0 | 0.00 | 0.00 | 0.00 | 88 | 1022.1 |
| 20260507032031 | 54 | 360 | 0.0 | 1.0 | 0.00 | 0.00 | 0.00 | 87 | 1021.9 |
| 20260507031532 | 54 | 360 | 0.0 | 1.0 | 0.00 | 0.00 | 0.00 | 87 | 1021.9 |
| 20260507031031 | 54 | 360 | 0.0 | 1.0 | 0.00 | 0.00 | 0.00 | 87 | 1021.8 |
| 20260507030531 | 54 | 360 | 0.0 | 2.0 | 0.00 | 0.00 | 0.00 | 87 | 1021.8 |
| 20260507030032 | 54 | 360 | 0.0 | 2.0 | 0.00 | 0.00 | 0.00 | 86 | 1021.8 |
| 20260507025530 | 54 | 360 | 0.0 | 1.0 | 0.00 | 0.00 | 0.00 | 87 | 1021.8 |
| 20260507025032 | 54 | 360 | 0.0 | 2.0 | 0.00 | 0.00 | 0.00 | 86 | 1021.8 |
| 20260507024535 | 54 | 360 | 0.0 | 2.0 | 0.00 | 0.00 | 0.00 | 86 | 1021.7 |
| 20260507024030 | 54 | 360 | 0.0 | 2.0 | 0.00 | 0.00 | 0.00 | 87 | 1021.7 |
| 20260507023531 | 54 | 360 | 0.0 | 3.0 | 0.00 | 0.00 | 0.00 | 86 | 1021.7 |
| 20260507022532 | 54 | 360 | 0.0 | 3.0 | 0.00 | 0.00 | 0.00 | 87 | 1021.7 |
| 20260507022033 | 55 | 360 | 1.0 | 3.0 | 0.00 | 0.00 | 0.00 | 86 | 1021.7 |
| 20260507021536 | 55 | 360 | 0.0 | 2.0 | 0.00 | 0.00 | 0.00 | 86 | 1021.8 |
| 20260507021031 | 54 | 360 | 0.0 | 3.0 | 0.00 | 0.00 | 0.00 | 86 | 1021.7 |
| 20260507020532 | 55 | 360 | 1.0 | 3.0 | 0.00 | 0.00 | 0.00 | 86 | 1021.7 |
| 20260507020032 | 55 | 360 | 0.0 | 3.0 | 0.00 | 0.00 | 0.00 | 86 | 1021.7 |
| 20260507015531 | 55 | 360 | 1.0 | 4.0 | 0.00 | 0.00 | 0.00 | 86 | 1021.7 |
| 20260507015031 | 55 | 360 | 1.0 | 3.0 | 0.00 | 0.00 | 0.00 | 86 | 1021.6 |
| 20260507014536 | 55 | 360 | 0.0 | 3.0 | 0.00 | 0.00 | 0.00 | 85 | 1021.6 |
| 20260507014032 | 55 | 360 | 1.0 | 3.0 | 0.00 | 0.00 | 0.00 | 85 | 1021.7 |
| 20260507013531 | 55 | 360 | 0.0 | 2.0 | 0.00 | 0.00 | 0.00 | 86 | 1021.5 |
| 20260507012528 | 55 | 360 | 1.0 | 4.0 | 0.00 | 0.00 | 0.00 | 85 | 1021.6 |
| 20260507012032 | 55 | 360 | 1.0 | 4.0 | 0.00 | 0.00 | 0.00 | 85 | 1021.5 |
| 20260507011531 | 55 | 360 | 1.0 | 6.0 | 0.00 | 0.00 | 0.00 | 85 | 1021.5 |
| 20260507011028 | 55 | 360 | 2.0 | 6.0 | 0.00 | 0.00 | 0.00 | 85 | 1021.5 |
| 20260507010528 | 55 | 360 | 1.0 | 4.0 | 0.00 | 0.00 | 0.00 | 85 | 1021.5 |
| 20260507010037 | 55 | 360 | 2.0 | 4.0 | 0.00 | 0.00 | 0.00 | 84 | 1021.6 |
| 20260507005531 | 55 | 360 | 2.0 | 4.0 | 0.00 | 0.00 | 0.00 | 83 | 1021.5 |
| 20260507005027 | 55 | 355 | 1.0 | 4.0 | 0.00 | 0.00 | 0.00 | 83 | 1021.5 |
| 20260507004528 | 56 | 355 | 2.0 | 5.0 | 0.00 | 0.00 | 0.00 | 83 | 1021.5 |
| 20260507004028 | 56 | 355 | 2.0 | 5.0 | 0.00 | 0.00 | 0.00 | 83 | 1021.6 |
| 20260507003528 | 55 | 355 | 1.0 | 5.0 | 0.00 | 0.00 | 0.00 | 83 | 1021.6 |
| 20260507002527 | 55 | 348 | 2.0 | 5.0 | 0.00 | 0.00 | 0.00 | 83 | 1021.7 |
| 20260507002027 | 56 | 350 | 1.0 | 4.0 | 0.00 | 0.00 | 0.00 | 82 | 1021.6 |
| 20260507001542 | 56 | 355 | 1.0 | 6.0 | 0.00 | 0.00 | 0.00 | 83 | 1021.7 |
| 20260507001027 | 56 | 355 | 3.0 | 6.0 | 0.00 | 0.00 | 0.00 | 83 | 1021.7 |
| 20260507000527 | 56 | 334 | 0.0 | 6.0 | 0.00 | 0.00 | 0.00 | 82 | 1021.7 |
| 20260507000032 | 56 | 329 | 3.0 | 6.0 | 0.00 | 0.00 | 0.00 | 83 | 1021.7 |
| 20260506235526 | 56 | 334 | 2.0 | 5.0 | 0.00 | 0.00 | 0.00 | 84 | 1021.7 |
| 20260506235028 | 55 | 338 | 1.0 | 5.0 | 0.00 | 0.00 | 0.00 | 83 | 1021.6 |
| 20260506234527 | 56 | 331 | 2.0 | 6.0 | 0.00 | 0.00 | 0.00 | 83 | 1021.7 |
| 20260506234027 | 56 | 324 | 2.0 | 6.0 | 0.00 | 0.00 | 0.00 | 83 | 1021.7 |
| 20260506233526 | 56 | 320 | 4.0 | 9.0 | 0.00 | 0.00 | 0.00 | 83 | 1021.6 |
| 20260506232526 | 56 | 323 | 4.0 | 9.0 | 0.00 | 0.00 | 0.00 | 82 | 1021.7 |
| 20260506232026 | 56 | 294 | 5.0 | 8.0 | 0.00 | 0.00 | 0.00 | 82 | 1021.7 |
| 20260506231525 | 56 | 263 | 1.0 | 7.0 | 0.00 | 0.00 | 0.00 | 82 | 1021.7 |
| 20260506231024 | 56 | 229 | 4.0 | 6.0 | 0.00 | 0.00 | 0.00 | 82 | 1021.7 |